Skip Page Navigation
NASA JPL Caltech
NASA Logo - Jet Propulsion Laboratory + View the NASA Portal
+ Near-Earth Object (NEO) Project
Search JPL
JPL Home Earth Solar System Stars & Galaxies Technology
JPL Solar System Dynamics
BODIES ORBITS EPHEMERIDES TOOLS PHYSICAL DATA DISCOVERY FAQ SITE MAP
JPL Small-Body Database Browser
Search: [ help ]  
3 Juno
Classification: Main-belt Asteroid          SPK-ID: 2000003
Ephemeris | Orbit Diagram | Orbital Elements | Physical Parameters | Discovery Circumstances ]

[ show orbit diagram ]
Orbital Elements at Epoch 2455200.5 (2010-Jan-04.0) TDB
Reference: JPL 84 (heliocentric ecliptic J2000)
 Element Value Uncertainty (1-sigma)   Units 
e .2549658011711765 2.0277e-08  
a 2.670000468072592 1.7321e-09 AU
q 1.989241659603048 5.4071e-08 AU
i 12.98205677828023 2.5036e-06 deg
node 169.9115485857683 1.1334e-05 deg
peri 248.0857793767332 1.2497e-05 deg
M 346.9285138798231 6.5489e-06 deg
tp 2455258.361261562862
(2010-Mar-02.86126157)
2.9018e-05 JED
period 1593.549040340363
4.36
1.5507e-06
4.246e-09
d
yr
n .2259108385664166 2.1983e-10 deg/d
Q 3.350759276542136 2.1737e-09 AU
  Orbit Determination Parameters
   # obs. used (total)      6511  
   data-arc span      67815 days (185.67 yr)  
   first obs. used      1824-04-18  
   last obs. used      2009-12-19  
   planetary ephem.      DE405  
   SB-pert. ephem.      SB405-CPV-2  
   quality code      0  
   fit RMS      .62035  
   data source      ORB  
   producer      Otto Matic  
   solution date      2010-Jan-04 19:13:38  

Additional Information
 Earth MOID = 1.04062 AU 
 T_jup = 3.299 
[ show covariance matrix ]

Ephemeris | Orbit Diagram | Orbital Elements | Physical Parameters | Discovery Circumstances ]

Physical Parameter Table
Parameter Symbol Value Units Sigma Reference Notes
absolute magnitude H 5.33 mag n/a IRAS-A-FPA-3-RDR-IMPS-V6.0 IRAS observations used: 23
magnitude slope G 0.32   n/a PDS3 (MPC 17257) Fit
diameter diameter 233.92 km 11.2 IRAS-A-FPA-3-RDR-IMPS-V6.0 IRAS observations used: 23
rotation period rot_per 7.210 h n/a IAU Lightcurve Data
(A.W. Harris, E-mail Mar. 2006)
Published Reference List:
[Groeneveld, I., Kuiper, G.P.: 1954, Astrophys. J. 120, 529-546.]
[Chang, Y.C., Chang, C.-s.: 1962, Acta Astron. Sin. 10, 101-111.]
[Gehrels, T., Owings D.: 1962, Astrophys. J. 135, 906-924.]
[Millis, R.L., Wasserman, L.H., Bowell, E., Franz, O.G., White, N.M., Lockwood, G.W., Nye, R., Bertram, R., Klemola, A., Dunham, E., Baron, R.L., Elliot, J.L., Harris, A., Young, J.W., Faulkner, J., Stanton, R., Reitsema, H.J., Hubbard, W.B., Zellner, B., Lebofsky, L., Cruikshank, D.P., Macknick, L.S., Becklin, E.E., Morrison, D., Lonsdale, C.J., Kunkle, T.D., Lee, T., Gatley, I., A'Hearn, M.F., DuPuy, D.L., Nolthenius, R., Ford, H., McKenna, D., Placova, Z., Horne, K., Sandmann, W.H., Taylor, G.E., Tucker, R.: 1981, Astron. J. 86, 306-313.]
[Schroll, A., Schober, H.J., Lagerkvist, C.-I.: 1981, Astron. Astrophys. 104, 296-299.]
geometric albedo albedo 0.2383   0.025 IRAS-A-FPA-3-RDR-IMPS-V6.0 IRAS observations used: 23
B-V BV .824 mag .024 EAR-A-5-DDR-UBV-MEAN-VALUES-V1.1 #obs=19; phase (min.=7.79, mean=16.60, max.=25.79) deg.
U-B UB .433 mag .030 EAR-A-5-DDR-UBV-MEAN-VALUES-V1.1 #obs=18; phase (min.=7.79, mean=16.62, max.=25.79) deg.
Tholen spectral type spec_T S   n/a EAR-A-5-DDR-TAXONOMY-V4.0 used 7 color indices; used ground-based radiometric albedo
SMASSII spectral type spec_B Sk   n/a EAR-A-5-DDR-TAXONOMY-V4.0 based on a high-resolution spectrum by Xu et al. (1995) or Bus and Binzel (2002)

3 Juno           Discovered 1804-Sep-01 by Harding, K. at Lilienthal
Reference: DISCOVERY.DBLast Updated: 2003-08-29
Ephemeris | Orbit Diagram | Orbital Elements | Physical Parameters | Discovery Circumstances ]
ABOUT SSD CREDITS/AWARDS PRIVACY/COPYRIGHT GLOSSARY LINKS
FirstGov 2010-Feb-10 07:54 UT
(server date/time)  
NASA Home Page
Site Manager:   Donald K. Yeomans
Webmaster  Alan B. Chamberlin